Погода в Новопокровке

Россия / Томская область     56°19′20″N   83°51′48″E
темп.,
°C
ветер,
м/с
пор.,
м/с
влажн.,
%
обл.,
%
осадки,
мм/ч
давл.,
гПа
погр.,
м
26 февраля, пт
пт2601:00−22ююз41094100 0.1 1019539
04:00−23ююз41095100 0.0 1020412
07:00−23ююз41095100 0.1 1022420
10:00−23юз5109397 0.0 1023713
13:00−23юз689098 0.1 1025877
16:00−23юз6987100 0.1 10271010
19:00−25юз4994100 0.1 1030303
22:00−27юз4995100 0.0 1032315
27 февраля, сб
сб2701:00−27юз4995100 0.1 1033471
04:00−27юз3797100 0.1 1033336
07:00−27юз4897100 0.2 1034334
10:00−26юз4795100 0.1 1035450
13:00−24юз4692100 0.1 1035531
16:00−22юз4690100 0.1 1035605
19:00−25ююз3497100 0.1 103663
22:00−28юз359895 0.0 103773
28 февраля, вс
вс2801:00−30юз339669 0.0 103836
04:00−31ююз349736 0.0 103837
07:00−32ю339834 0.0 103830
10:00−30ю359757 0.0 1038113
13:00−24ююв359561 0.0 1035242
16:00−19юв359283 0.0 1033418
19:00−21вюв469691 0.0 1031117
22:00−20вюв4796100 0.0 1028179
1 марта, пн
пн101:00−17вюв4896100 0.1 1025222
04:00−15в4896100 0.2 1021239
07:00−13в5995100 0.7 1018293
10:00−12в6995100 0.5 1015295
13:00−9в6994100 0.8 1013380
16:00−7всв6994100 0.3 1011432
19:00−8всв5995100 0.8 1010321
22:00−10всв4795100 0.4 1009250
2 марта, вт
вт201:00−10всв4696100 1.1 1008215
04:00−10св3596100 1.8 1007201
07:00−13с2396100 2.1 100838
10:00−13сз129697 0.3 100986
13:00−9зюз359395 0.4 1010435
16:00−7з5793100 0.5 1011665
19:00−10зюз4893100 0.8 1012318
22:00−12зюз4894100 0.1 1013266